"startDT [UTC]","vpos","CH4 [ppm]","stdev(CH4) [ppm]","CO2 [ppm]","stdev(CO2) [ppm]","H2O [ppm]","stdev(H2O)","p_LGR [torr]","T_LGR [C]","mt1_LGR [us]","mt2_LGR [us]","T_ECpre [C]","T_EC1 [C]","T_EC2 [C]","p_inlet [hPa]","p_in [hPa]","p_out [hPa]","T_inlet [C]","RH_inlet [%]","dwpt_inlet [C]","T_vent [C]","RH_vent [%]","dwpt_vent [C]","flow_vent [l min-1]","flow_inlet [l min-1]","dwpt_sample [C]","T_room [C]"
2012-04-26 00:00:00,0.0,1.9045,0.0010,402.49,0.31,145.7,40.4,138.12,28.23,24.61,36.32,0.04,-272.74,-272.74,-53,557,-928,22.3,4.3,-20.9,22.6,4.4,-20.4,5.73,2.37,-25.4,27.4
2012-04-26 00:01:00,0.0,1.9043,0.0009,402.50,0.39,150.4,43.0,138.12,28.24,24.61,36.32,0.04,-272.74,-272.74,-53,557,-928,22.3,4.3,-21.0,22.6,4.4,-20.5,5.73,2.28,-25.4,27.4
2012-04-26 00:02:00,0.0,1.9042,0.0009,402.48,0.33,155.5,35.0,138.12,28.24,24.61,36.32,0.04,-272.74,-272.74,-53,557,-928,22.3,4.3,-21.0,22.6,4.4,-20.5,5.73,2.43,-25.4,27.4
2012-04-26 00:03:00,0.0,1.9043,0.0010,402.58,0.37,154.3,39.9,138.12,28.24,24.61,36.32,0.04,-272.74,-272.74,-53,557,-928,22.3,4.3,-20.9,22.6,4.4,-20.5,5.73,2.37,-25.3,27.4
2012-04-26 00:04:00,0.0,1.9043,0.0010,402.42,0.29,155.1,38.5,138.12,28.25,24.61,36.33,0.04,-272.74,-272.74,-53,557,-928,22.3,4.2,-21.0,22.6,4.4,-20.5,5.73,2.28,-25.3,27.5
2012-04-26 00:05:00,0.0,1.9045,0.0010,402.54,0.38,163.3,42.8,138.12,28.25,24.61,36.32,0.04,-272.73,-272.74,-53,557,-928,22.4,4.2,-21.0,22.7,4.4,-20.5,5.73,2.42,-25.3,27.5
2012-04-26 00:06:00,0.0,1.9046,0.0009,402.48,0.33,169.9,37.8,138.12,28.26,24.61,36.32,0.04,-272.74,-272.74,-53,557,-928,22.4,4.2,-21.0,22.7,4.3,-20.5,5.73,2.38,-25.3,27.6
2012-04-26 00:07:00,0.0,1.9044,0.0009,402.46,0.34,160.7,41.8,138.12,28.26,24.61,36.33,0.04,-272.74,-272.74,-53,557,-928,22.4,4.2,-21.0,22.7,4.4,-20.5,5.73,2.28,-25.2,27.6
2012-04-26 00:08:00,0.0,1.9046,0.0009,402.45,0.30,167.7,37.5,138.12,28.26,24.61,36.33,0.04,-272.73,-272.74,-53,557,-928,22.4,4.2,-21.0,22.7,4.3,-20.6,5.73,2.41,-25.2,27.6
2012-04-26 00:09:00,0.0,1.9042,0.0010,402.50,0.35,163.7,38.7,138.12,28.27,24.62,36.32,0.04,-272.73,-272.74,-53,557,-928,22.4,4.2,-21.1,22.7,4.3,-20.7,5.73,2.40,-25.2,27.7
2012-04-26 00:10:00,0.0,1.9047,0.0009,402.36,0.36,156.8,37.7,138.12,28.27,24.61,36.33,0.04,-272.74,-272.74,-53,557,-928,22.5,4.2,-21.1,22.7,4.3,-20.6,5.73,2.28,-25.1,27.7
2012-04-26 00:11:00,0.0,1.9043,0.0012,402.50,0.39,169.3,41.2,138.12,28.27,24.62,36.32,0.04,-272.74,-272.74,-53,557,-928,22.5,4.2,-21.1,22.7,4.3,-20.6,5.73,2.37,-25.1,27.7
2012-04-26 00:12:00,0.0,1.9046,0.0010,402.45,0.37,168.1,36.8,138.12,28.28,24.61,36.32,0.04,-272.73,-272.74,-53,557,-928,22.5,4.2,-21.1,22.7,4.3,-20.6,5.73,2.43,-25.1,27.7
2012-04-26 00:13:00,0.0,1.9047,0.0012,402.63,0.35,175.6,39.2,138.12,28.29,24.61,36.32,0.04,-272.74,-272.74,-53,558,-928,22.5,4.2,-21.1,22.8,4.3,-20.6,5.73,2.29,-25.1,27.7
2012-04-26 00:14:00,0.0,1.9047,0.0009,402.43,0.39,175.2,38.6,138.12,28.29,24.62,36.33,0.04,-272.74,-272.74,-53,558,-928,22.5,4.2,-21.0,22.8,4.3,-20.6,5.73,2.33,-25.0,27.8
2012-04-26 00:15:00,0.0,1.9045,0.0010,402.47,0.34,187.0,37.5,138.12,28.30,24.62,36.33,0.04,-272.74,-272.74,-53,558,-928,22.6,4.2,-21.0,22.8,4.3,-20.6,5.73,2.44,-25.0,27.8
2012-04-26 00:16:00,0.0,1.9048,0.0012,402.46,0.38,181.0,33.7,138.12,28.30,24.62,36.32,0.04,-272.74,-272.74,-53,558,-928,22.6,4.2,-21.1,22.8,4.3,-20.6,5.73,2.33,-25.0,27.8
2012-04-26 00:17:00,0.0,1.9049,0.0010,402.44,0.39,185.0,37.4,138.11,28.30,24.61,36.33,0.04,-272.74,-272.74,-53,558,-928,22.6,4.2,-21.1,22.8,4.3,-20.6,5.73,2.29,-25.0,27.8
2012-04-26 00:18:00,0.0,1.9047,0.0011,402.50,0.34,185.3,47.4,138.11,28.31,24.62,36.33,0.04,-272.74,-272.74,-53,558,-928,22.6,4.2,-21.1,22.8,4.3,-20.6,5.73,2.42,-25.0,27.8
2012-04-26 00:19:00,0.0,1.9046,0.0010,402.43,0.34,188.0,35.3,138.11,28.31,24.62,36.33,0.04,-272.74,-272.74,-53,558,-928,22.6,4.2,-21.0,22.8,4.3,-20.6,5.73,2.39,-25.0,27.9
2012-04-26 00:20:00,0.0,1.9046,0.0010,402.40,0.36,189.2,41.4,138.11,28.32,24.62,36.33,0.04,-272.74,-272.74,-53,558,-928,22.6,4.2,-21.0,22.9,4.3,-20.6,5.73,2.28,-25.0,27.9
2012-04-26 00:21:00,0.0,1.9046,0.0010,402.47,0.36,191.9,36.1,138.11,28.32,24.62,36.33,0.04,-272.74,-272.74,-53,558,-928,22.6,4.2,-21.0,22.9,4.3,-20.6,5.73,2.35,-24.9,27.9
2012-04-26 00:22:00,0.0,1.9046,0.0010,402.44,0.31,188.7,33.6,138.11,28.32,24.62,36.33,0.04,-272.73,-272.74,-53,559,-928,22.7,4.2,-21.0,22.9,4.3,-20.6,5.73,2.43,-24.9,27.9
2012-04-26 00:23:00,0.0,1.9047,0.0010,402.40,0.33,200.3,34.4,138.11,28.33,24.61,36.33,0.04,-272.74,-272.74,-53,558,-928,22.7,4.2,-21.1,22.9,4.3,-20.6,5.73,2.33,-24.9,28.0
2012-04-26 00:24:00,0.0,1.9046,0.0009,402.54,0.31,200.6,36.4,138.11,28.34,24.62,36.33,0.04,-272.73,-272.74,-53,559,-928,22.7,4.1,-21.1,22.9,4.3,-20.6,5.73,2.29,-24.9,28.0
2012-04-26 00:25:00,0.0,1.9050,0.0011,402.46,0.38,187.2,38.8,138.11,28.34,24.61,36.33,0.04,-272.74,-272.74,-53,559,-928,22.7,4.1,-21.1,22.9,4.2,-20.6,5.73,2.41,-24.9,28.0
2012-04-26 00:26:00,0.0,1.9048,0.0011,402.56,0.36,199.1,41.0,138.11,28.35,24.62,36.33,0.04,-272.74,-272.74,-53,559,-928,22.7,4.1,-21.1,23.0,4.2,-20.6,5.73,2.39,-24.8,28.1
2012-04-26 00:27:00,0.0,1.9049,0.0011,402.52,0.39,185.5,35.0,138.11,28.36,24.62,36.33,0.04,-272.74,-272.74,-53,559,-929,22.7,4.1,-21.1,23.0,4.2,-20.6,5.73,2.28,-24.8,28.1
2012-04-26 00:28:00,0.0,1.9048,0.0012,402.54,0.37,200.2,36.8,138.11,28.36,24.62,36.33,0.04,-272.74,-272.74,-53,559,-929,22.8,4.1,-21.1,23.0,4.2,-20.7,5.73,2.34,-24.8,28.1
2012-04-26 00:29:00,0.0,1.9049,0.0011,402.50,0.35,195.6,36.3,138.11,28.37,24.62,36.33,0.04,-272.74,-272.74,-53,560,-929,22.8,4.1,-21.2,23.0,4.2,-20.7,5.73,2.43,-24.8,28.2
2012-04-26 00:30:00,0.0,1.9049,0.0010,402.65,0.31,196.5,38.1,138.11,28.38,24.62,36.33,0.04,-272.74,-272.74,-53,559,-929,22.8,4.1,-21.2,23.0,4.2,-20.7,5.73,2.35,-24.8,28.1
2012-04-26 00:31:00,0.0,1.9052,0.0010,402.46,0.37,197.0,34.2,138.11,28.38,24.62,36.33,0.04,-272.73,-272.73,-53,560,-929,22.9,4.1,-21.1,23.0,4.2,-20.7,5.73,2.28,-24.7,28.1
2012-04-26 00:32:00,0.0,1.9049,0.0010,402.55,0.38,204.1,43.5,138.11,28.39,24.62,36.33,0.04,-272.74,-272.74,-53,560,-929,22.9,4.1,-21.2,23.1,4.2,-20.7,5.73,2.37,-24.8,28.2
2012-04-26 00:33:00,0.0,1.9052,0.0009,402.57,0.36,201.3,38.8,138.11,28.39,24.62,36.33,0.04,-272.74,-272.74,-53,560,-929,22.9,4.1,-21.2,23.1,4.2,-20.8,5.73,2.42,-24.7,28.2
2012-04-26 00:34:00,0.0,1.9051,0.0010,402.49,0.36,209.6,40.9,138.11,28.40,24.62,36.34,0.04,-272.73,-272.73,-53,560,-929,22.9,4.0,-21.2,23.1,4.2,-20.7,5.73,2.31,-24.7,28.2
2012-04-26 00:35:00,0.0,1.9052,0.0009,402.60,0.39,195.3,36.4,138.11,28.41,24.62,36.33,0.04,-272.73,-272.73,-53,560,-929,22.9,4.0,-21.2,23.1,4.1,-20.8,5.73,2.29,-24.7,28.3
2012-04-26 00:36:00,0.0,1.9053,0.0011,402.49,0.35,190.4,37.0,138.11,28.41,24.62,36.33,0.04,-272.74,-272.74,-53,560,-929,22.9,4.0,-21.2,23.1,4.1,-20.8,5.73,2.40,-24.7,28.3
2012-04-26 00:37:00,0.0,1.9055,0.0009,402.53,0.31,200.0,42.1,138.11,28.42,24.62,36.34,0.04,-272.74,-272.74,-53,560,-929,22.9,4.0,-21.2,23.1,4.1,-20.7,5.73,2.40,-24.7,28.3
2012-04-26 00:38:00,0.0,1.9056,0.0009,402.46,0.40,195.1,44.7,138.11,28.43,24.62,36.33,0.04,-272.73,-272.74,-53,560,-929,22.9,4.0,-21.2,23.1,4.2,-20.7,5.73,2.26,-24.7,27.8
2012-04-26 00:39:00,0.0,1.9052,0.0010,402.53,0.36,188.5,36.1,138.11,28.43,24.62,36.32,0.04,-272.74,-272.74,-53,560,-929,22.9,4.0,-21.2,23.1,4.1,-20.8,5.73,2.47,-24.8,27.2
2012-04-26 00:40:00,0.0,1.9049,0.0011,402.55,0.37,180.4,41.4,138.12,28.42,24.62,36.33,0.04,-272.74,-272.74,-53,560,-929,22.9,4.0,-21.3,23.1,4.1,-20.8,5.73,2.30,-25.1,26.8
2012-04-26 00:41:00,0.0,1.9052,0.0009,402.50,0.35,161.2,44.3,138.12,28.41,24.62,36.33,0.04,-272.74,-272.74,-53,560,-929,22.8,4.0,-21.3,23.0,4.1,-20.9,5.73,2.30,-25.3,26.5
2012-04-26 00:42:00,0.0,1.9050,0.0010,402.59,0.34,142.4,38.1,138.13,28.40,24.62,36.32,0.04,-272.74,-272.74,-54,560,-929,22.8,4.0,-21.3,22.9,4.2,-20.8,5.73,2.39,-25.5,26.2
2012-04-26 00:43:00,0.0,1.9053,0.0011,402.66,0.35,128.2,36.3,138.14,28.38,24.62,36.32,0.04,-272.74,-272.74,-54,560,-930,22.8,4.0,-21.3,22.8,4.2,-20.9,5.73,2.43,-25.6,25.9
2012-04-26 00:44:00,0.0,1.9051,0.0009,402.66,0.32,102.3,40.6,138.14,28.35,24.62,36.32,0.04,-272.74,-272.74,-54,560,-930,22.7,4.0,-21.3,22.8,4.2,-21.0,5.73,2.42,-25.8,25.7
2012-04-26 00:45:00,0.0,1.9046,0.0010,402.77,0.33,98.0,39.3,138.15,28.33,24.62,36.32,0.04,-272.73,-272.74,-54,559,-929,22.6,4.1,-21.3,22.7,4.2,-21.0,5.73,2.38,-26.0,25.8
2012-04-26 00:46:00,0.0,1.9040,0.0011,402.58,0.32,84.0,30.9,138.15,28.30,24.62,36.32,0.04,-272.74,-272.74,-54,559,-930,22.6,4.1,-21.3,22.6,4.2,-21.0,5.73,2.33,-26.1,25.8
2012-04-26 00:47:00,0.0,1.9034,0.0009,402.53,0.34,69.5,33.0,138.15,28.27,24.62,36.32,0.04,-272.73,-272.74,-54,558,-929,22.5,4.1,-21.3,22.5,4.2,-21.0,5.73,2.26,-26.2,26.4
2012-04-26 00:48:00,0.0,1.9036,0.0011,402.66,0.36,73.4,34.0,138.15,28.25,24.62,36.32,0.04,-272.74,-272.74,-53,558,-929,22.5,4.1,-21.3,22.5,4.2,-20.9,5.73,2.48,-26.1,26.7
2012-04-26 00:49:00,0.0,1.9033,0.0010,402.62,0.38,80.4,34.9,138.15,28.23,24.62,36.32,0.04,-272.74,-272.74,-54,558,-929,22.4,4.1,-21.3,22.5,4.3,-20.9,5.73,2.25,-26.1,26.9
2012-04-26 00:50:00,0.0,1.9036,0.0011,402.63,0.33,99.1,36.4,138.15,28.22,24.61,36.31,0.04,-272.74,-272.74,-53,558,-929,22.4,4.1,-21.3,22.5,4.3,-20.9,5.73,2.47,-26.0,27.1
2012-04-26 00:51:00,0.0,1.9034,0.0010,402.44,0.33,91.4,37.4,138.14,28.21,24.62,36.33,0.04,-272.74,-272.74,-54,557,-929,22.4,4.1,-21.3,22.5,4.3,-20.9,5.73,2.30,-26.0,27.2
2012-04-26 00:52:00,0.0,1.9039,0.0010,402.55,0.34,107.0,41.8,138.14,28.20,24.61,36.32,0.04,-272.73,-272.74,-53,557,-929,22.4,4.1,-21.3,22.5,4.2,-20.9,5.73,2.36,-25.9,27.2
2012-04-26 00:53:00,0.0,1.9038,0.0011,402.51,0.31,100.8,39.7,138.14,28.19,24.62,36.33,0.04,-272.73,-272.74,-53,557,-929,22.3,4.1,-21.3,22.5,4.2,-20.9,5.73,2.44,-25.8,27.3
2012-04-26 00:54:00,0.0,1.9039,0.0009,402.38,0.42,112.7,37.7,138.14,28.19,24.62,36.33,0.04,-272.74,-272.74,-54,557,-929,22.3,4.1,-21.4,22.5,4.2,-20.9,5.73,2.27,-25.8,27.3
2012-04-26 00:55:00,0.0,1.9048,0.0009,402.46,0.39,119.5,38.9,138.13,28.19,24.61,36.32,0.04,-272.74,-272.74,-53,557,-929,22.3,4.1,-21.4,22.5,4.2,-20.9,5.73,2.38,-25.7,27.4
2012-04-26 00:56:00,0.0,1.9041,0.0010,402.47,0.34,122.7,40.6,138.13,28.19,24.62,36.32,0.04,-272.74,-272.74,-54,557,-929,22.3,4.1,-21.4,22.6,4.2,-20.9,5.73,2.43,-25.6,27.4
2012-04-26 00:57:00,0.0,1.9045,0.0010,402.42,0.37,128.6,34.4,138.13,28.19,24.61,36.32,0.04,-272.74,-272.74,-53,557,-928,22.3,4.1,-21.4,22.6,4.2,-20.9,5.73,2.28,-25.6,27.5
2012-04-26 00:58:00,0.0,1.9050,0.0010,402.40,0.37,135.6,47.2,138.13,28.19,24.61,36.32,0.04,-272.74,-272.73,-53,557,-929,22.4,4.1,-21.4,22.6,4.2,-20.9,5.73,2.39,-25.5,27.5
2012-04-26 00:59:00,0.0,1.9052,0.0010,402.50,0.35,132.3,45.7,138.13,28.19,24.61,36.32,0.04,-272.74,-272.73,-53,557,-928,22.4,4.1,-21.3,22.6,4.2,-20.8,5.73,2.42,-25.5,27.5
2012-04-26 01:00:00,0.0,1.9048,0.0009,402.39,0.36,146.5,29.8,138.13,28.19,24.62,36.32,0.04,-272.74,-272.74,-53,557,-928,22.4,4.1,-21.3,22.6,4.2,-20.9,5.73,2.27,-25.4,27.5
2012-04-26 01:01:00,0.0,1.9053,0.0009,402.40,0.38,150.8,39.9,138.13,28.20,24.61,36.33,0.04,-272.74,-272.74,-53,557,-928,22.4,4.1,-21.3,22.6,4.2,-20.9,5.73,2.38,-25.4,27.5
2012-04-26 01:02:00,0.0,1.9053,0.0009,402.55,0.37,154.1,34.9,138.12,28.20,24.61,36.32,0.04,-272.73,-272.74,-53,557,-928,22.4,4.1,-21.3,22.6,4.2,-20.8,5.73,2.43,-25.4,27.5
2012-04-26 01:03:00,0.0,1.9055,0.0009,402.46,0.36,155.0,35.0,138.12,28.21,24.61,36.32,0.04,-272.74,-272.74,-53,557,-928,22.4,4.1,-21.4,22.7,4.2,-20.9,5.73,2.28,-25.3,27.5
2012-04-26 01:04:00,0.0,1.9057,0.0008,402.45,0.37,152.9,38.0,138.12,28.22,24.61,36.32,0.04,-272.74,-272.74,-53,557,-928,22.4,4.1,-21.4,22.7,4.2,-20.9,5.73,2.36,-25.3,27.5
2012-04-26 01:05:00,0.0,1.9056,0.0009,402.53,0.30,152.2,35.6,138.12,28.22,24.62,36.32,0.04,-272.74,-272.73,-53,557,-928,22.5,4.1,-21.3,22.7,4.2,-20.9,5.73,2.44,-25.2,27.6
2012-04-26 01:06:00,0.0,1.9054,0.0010,402.57,0.43,162.1,40.1,138.12,28.23,24.61,36.32,0.04,-272.74,-272.74,-53,557,-928,22.5,4.1,-21.3,22.7,4.2,-20.9,5.73,2.29,-25.2,27.5
2012-04-26 01:07:00,0.0,1.9056,0.0008,402.43,0.36,169.6,38.2,138.12,28.23,24.61,36.32,0.04,-272.74,-272.74,-53,557,-928,22.5,4.1,-21.3,22.7,4.2,-20.9,5.73,2.34,-25.2,27.5
2012-04-26 01:08:00,0.0,1.9060,0.0009,402.52,0.32,166.1,37.2,138.12,28.24,24.61,36.33,0.04,-272.74,-272.74,-53,557,-929,22.5,4.1,-21.3,22.7,4.2,-20.8,5.73,2.44,-25.1,27.5
2012-04-26 01:09:00,0.0,1.9058,0.0012,402.55,0.37,171.0,37.9,138.12,28.24,24.61,36.32,0.04,-272.74,-272.74,-53,558,-929,22.5,4.1,-21.3,22.7,4.2,-20.9,5.73,2.32,-25.1,27.6
2012-04-26 01:10:00,0.0,1.9056,0.0009,402.47,0.31,179.9,34.5,138.12,28.25,24.62,36.33,0.04,-272.74,-272.74,-53,557,-929,22.6,4.1,-21.3,22.8,4.2,-20.9,5.73,2.30,-25.1,27.7
2012-04-26 01:11:00,0.0,1.9056,0.0010,402.55,0.35,176.8,37.6,138.12,28.25,24.62,36.33,0.04,-272.74,-272.74,-53,557,-929,22.6,4.1,-21.3,22.8,4.2,-20.9,5.73,2.44,-25.0,27.7
2012-04-26 01:12:00,0.0,1.9061,0.0010,402.51,0.36,180.1,37.3,138.12,28.26,24.61,36.32,0.04,-272.73,-272.74,-53,557,-928,22.6,4.1,-21.3,22.8,4.2,-20.9,5.73,2.36,-25.0,27.7
2012-04-26 01:13:00,0.0,1.9063,0.0010,402.63,0.34,173.9,34.2,138.12,28.27,24.61,36.32,0.04,-272.73,-272.74,-53,557,-929,22.6,4.1,-21.3,22.8,4.2,-20.8,5.73,2.28,-25.0,27.8
2012-04-26 01:14:00,0.0,1.9060,0.0010,402.47,0.40,183.0,30.9,138.11,28.27,24.61,36.32,0.04,-272.74,-272.74,-53,558,-929,22.7,4.1,-21.3,22.9,4.2,-20.9,5.73,2.40,-24.9,27.8
2012-04-26 01:15:00,0.0,1.9057,0.0009,402.47,0.35,174.6,35.5,138.11,28.28,24.62,36.33,0.04,-272.73,-272.74,-53,558,-929,22.7,4.1,-21.3,22.9,4.2,-20.8,5.73,2.41,-24.9,27.8
2012-04-26 01:16:00,0.0,1.9059,0.0011,402.47,0.36,184.5,42.9,138.11,28.29,24.61,36.33,0.04,-272.73,-272.74,-53,558,-929,22.7,4.0,-21.3,22.9,4.2,-20.8,5.73,2.28,-24.9,27.8
2012-04-26 01:17:00,0.0,1.9063,0.0010,402.51,0.33,191.7,34.1,138.11,28.29,24.61,36.32,0.04,-272.73,-272.74,-53,558,-929,22.7,4.0,-21.3,22.9,4.2,-20.8,5.73,2.35,-24.9,27.8
2012-04-26 01:18:00,0.0,1.9060,0.0010,402.47,0.38,194.1,35.1,138.11,28.30,24.62,36.33,0.04,-272.74,-272.74,-53,558,-929,22.7,4.0,-21.3,22.9,4.2,-20.9,5.73,2.43,-24.8,27.9
2012-04-26 01:19:00,0.0,1.9062,0.0012,402.60,0.42,191.4,43.1,138.11,28.31,24.61,36.33,0.04,-272.73,-272.74,-53,558,-929,22.7,4.0,-21.4,22.9,4.1,-20.9,5.73,2.32,-24.8,27.9
2012-04-26 01:20:00,0.0,1.9065,0.0011,402.50,0.29,198.8,39.6,138.11,28.32,24.61,36.33,0.04,-272.74,-272.74,-53,559,-929,22.8,4.0,-21.3,23.0,4.2,-20.8,5.73,2.29,-24.8,27.9
2012-04-26 01:21:00,0.0,1.9060,0.0011,402.65,0.34,198.9,40.0,138.11,28.33,24.62,36.33,0.04,-272.74,-272.74,-53,559,-929,22.8,4.0,-21.3,23.0,4.2,-20.8,5.73,2.41,-24.8,28.0
2012-04-26 01:22:00,0.0,1.9066,0.0010,402.59,0.36,201.0,32.3,138.11,28.33,24.61,36.33,0.04,-272.73,-272.74,-53,559,-929,22.8,4.0,-21.3,23.0,4.2,-20.8,5.73,2.40,-24.8,28.0
2012-04-26 01:23:00,0.0,1.9063,0.0010,402.62,0.37,204.3,35.1,138.11,28.34,24.62,36.33,0.04,-272.74,-272.74,-53,559,-929,22.8,4.0,-21.3,23.0,4.1,-20.9,5.73,2.28,-24.8,28.0
2012-04-26 01:24:00,0.0,1.9064,0.0010,402.62,0.37,201.0,35.0,138.11,28.34,24.62,36.33,0.04,-272.74,-272.74,-53,559,-929,22.9,4.0,-21.3,23.0,4.1,-20.8,5.73,2.34,-24.7,28.0
2012-04-26 01:25:00,0.0,1.9067,0.0008,402.64,0.39,199.4,33.0,138.11,28.35,24.61,36.32,0.04,-272.74,-272.74,-53,559,-929,22.9,4.0,-21.3,23.1,4.1,-20.8,5.73,2.43,-24.7,28.1
2012-04-26 01:26:00,0.0,1.9066,0.0010,402.56,0.34,198.2,42.4,138.11,28.36,24.62,36.33,0.04,-272.74,-272.73,-53,559,-929,22.9,4.0,-21.2,23.1,4.1,-20.8,5.73,2.34,-24.7,28.1
2012-04-26 01:27:00,0.0,1.9067,0.0010,402.47,0.31,209.9,36.8,138.11,28.37,24.62,36.34,0.04,-272.74,-272.74,-53,559,-929,22.9,4.0,-21.2,23.1,4.2,-20.7,5.73,2.28,-24.7,28.1
2012-04-26 01:28:00,0.0,1.9066,0.0010,402.70,0.35,209.2,43.1,138.11,28.37,24.62,36.33,0.04,-272.73,-272.74,-53,560,-929,23.0,4.0,-21.3,23.1,4.1,-20.8,5.73,2.38,-24.7,28.2
2012-04-26 01:29:00,0.0,1.9069,0.0010,402.61,0.37,214.4,38.0,138.11,28.38,24.61,36.34,0.04,-272.74,-272.74,-53,560,-929,23.0,4.0,-21.3,23.1,4.1,-20.8,5.73,2.42,-24.6,28.2
2012-04-26 01:30:00,0.0,1.9067,0.0010,402.58,0.35,204.9,40.3,138.11,28.39,24.62,36.33,0.04,-272.74,-272.74,-53,560,-929,23.0,4.0,-21.2,23.2,4.1,-20.7,5.73,2.31,-24.6,28.2
2012-04-26 01:31:00,0.0,1.9067,0.0009,402.59,0.38,210.7,30.2,138.11,28.39,24.62,36.34,0.04,-272.73,-272.74,-53,560,-929,23.0,4.0,-21.2,23.2,4.1,-20.8,5.73,2.30,-24.6,27.9
2012-04-26 01:32:00,0.0,1.9071,0.0010,402.65,0.33,198.8,38.3,138.11,28.40,24.62,36.33,0.04,-272.74,-272.74,-54,560,-930,23.0,4.0,-21.3,23.2,4.1,-20.8,5.73,2.44,-24.7,27.2
2012-04-26 01:33:00,0.0,1.9068,0.0009,402.57,0.38,184.6,45.4,138.11,28.40,24.62,36.33,0.04,-272.73,-272.74,-53,560,-930,23.0,4.0,-21.4,23.1,4.1,-20.9,5.73,2.37,-25.0,26.7
2012-04-26 01:34:00,0.0,1.9069,0.0009,402.58,0.39,171.9,36.2,138.12,28.39,24.62,36.33,0.04,-272.74,-272.74,-53,560,-930,22.9,4.0,-21.4,23.1,4.1,-21.0,5.73,2.27,-25.2,26.4
2012-04-26 01:35:00,0.0,1.9072,0.0008,402.64,0.37,149.7,39.4,138.13,28.38,24.62,36.32,0.04,-272.74,-272.73,-53,560,-930,22.9,4.0,-21.3,23.0,4.1,-20.9,5.73,2.34,-25.4,26.2
2012-04-26 01:36:00,0.0,1.9077,0.0009,402.65,0.33,131.5,39.2,138.13,28.36,24.62,36.33,0.04,-272.74,-272.74,-54,560,-930,22.9,4.0,-21.3,22.9,4.1,-20.9,5.73,2.40,-25.5,25.8
2012-04-26 01:37:00,0.0,1.9074,0.0010,402.74,0.37,130.9,40.1,138.14,28.34,24.62,36.32,0.04,-272.74,-272.74,-54,559,-930,22.8,4.0,-21.5,22.8,4.1,-21.1,5.73,2.43,-25.7,25.7
2012-04-26 01:38:00,0.0,1.9072,0.0010,402.83,0.32,103.0,41.4,138.14,28.32,24.61,36.32,0.04,-272.74,-272.74,-54,559,-930,22.7,4.0,-21.6,22.7,4.1,-21.2,5.73,2.41,-25.9,25.6
2012-04-26 01:39:00,0.0,1.9062,0.0011,402.68,0.32,88.1,35.2,138.15,28.29,24.62,36.32,0.04,-272.73,-272.73,-54,559,-930,22.7,4.0,-21.5,22.7,4.1,-21.1,5.73,2.38,-26.1,25.6
2012-04-26 01:40:00,0.0,1.9056,0.0009,402.78,0.38,78.6,39.3,138.15,28.26,24.61,36.32,0.04,-272.74,-272.74,-54,558,-930,22.6,4.0,-21.5,22.6,4.1,-21.1,5.73,2.29,-26.2,26.1
2012-04-26 01:41:00,0.0,1.9051,0.0010,402.73,0.33,78.4,34.5,138.15,28.23,24.62,36.32,0.04,-272.74,-272.74,-54,558,-929,22.6,4.0,-21.4,22.6,4.2,-21.1,5.73,2.32,-26.2,26.5
2012-04-26 01:42:00,0.0,1.9053,0.0010,402.57,0.36,86.8,37.9,138.15,28.21,24.62,36.32,0.04,-272.74,-272.74,-54,558,-929,22.5,4.1,-21.2,22.6,4.2,-20.9,5.73,2.44,-26.1,26.8
2012-04-26 01:43:00,0.0,1.9054,0.0010,402.68,0.38,89.7,33.5,138.15,28.20,24.61,36.32,0.04,-272.73,-272.73,-54,558,-930,22.5,4.1,-21.3,22.6,4.2,-20.9,5.73,2.32,-26.1,27.0
2012-04-26 01:44:00,0.0,1.9054,0.0008,402.59,0.33,94.3,33.5,138.14,28.19,24.61,36.32,0.04,-272.74,-272.74,-54,557,-929,22.5,4.1,-21.4,22.6,4.2,-21.0,5.73,2.35,-26.0,27.1
2012-04-26 01:45:00,0.0,1.9056,0.0009,402.67,0.33,98.0,34.6,138.14,28.18,24.62,36.32,0.04,-272.73,-272.74,-54,557,-929,22.5,4.1,-21.4,22.6,4.2,-21.0,5.73,2.44,-25.9,27.2
2012-04-26 01:46:00,0.0,1.9059,0.0009,402.61,0.33,109.6,34.9,138.14,28.18,24.61,36.32,0.04,-272.74,-272.74,-54,557,-929,22.4,4.1,-21.5,22.6,4.2,-21.1,5.73,2.27,-25.8,27.3
2012-04-26 01:47:00,0.0,1.9063,0.0011,402.53,0.28,122.9,39.8,138.13,28.18,24.61,36.33,0.04,-272.74,-272.74,-53,557,-929,22.5,4.1,-21.5,22.6,4.2,-21.0,5.73,2.40,-25.8,27.3
2012-04-26 01:48:00,0.0,1.9065,0.0010,402.56,0.31,118.7,37.3,138.13,28.18,24.61,36.32,0.04,-272.74,-272.74,-54,557,-929,22.4,4.1,-21.4,22.6,4.2,-21.0,5.73,2.41,-25.7,27.4
2012-04-26 01:49:00,0.0,1.9065,0.0009,402.55,0.31,128.0,41.7,138.13,28.18,24.62,36.32,0.04,-272.74,-272.74,-53,557,-929,22.5,4.1,-21.4,22.7,4.2,-21.0,5.73,2.27,-25.7,27.4
2012-04-26 01:50:00,0.0,1.9073,0.0010,402.59,0.35,132.7,32.6,138.13,28.18,24.61,36.32,0.04,-272.73,-272.74,-53,558,-929,22.5,4.1,-21.4,22.7,4.2,-20.9,5.73,2.41,-25.6,27.4
2012-04-26 01:51:00,0.0,1.9067,0.0010,402.48,0.36,139.5,40.3,138.13,28.19,24.62,36.32,0.04,-272.74,-272.74,-54,557,-929,22.5,4.1,-21.3,22.7,4.2,-20.9,5.73,2.41,-25.5,27.5
2012-04-26 01:52:00,0.0,1.9070,0.0010,402.54,0.32,146.4,37.2,138.13,28.19,24.61,36.32,0.04,-272.74,-272.74,-53,557,-929,22.5,4.1,-21.4,22.7,4.2,-20.9,5.73,2.27,-25.5,27.5
2012-04-26 01:53:00,0.0,1.9075,0.0009,402.59,0.33,140.4,35.7,138.12,28.20,24.61,36.33,0.04,-272.73,-272.74,-54,557,-929,22.5,4.1,-21.5,22.7,4.2,-21.0,5.73,2.40,-25.4,27.5
2012-04-26 01:54:00,0.0,1.9074,0.0009,402.52,0.29,150.6,36.2,138.12,28.20,24.61,36.32,0.04,-272.74,-272.74,-53,557,-929,22.5,4.1,-21.4,22.7,4.2,-21.0,5.73,2.41,-25.4,27.5
2012-04-26 01:55:00,0.0,1.9079,0.0008,402.51,0.37,157.7,38.0,138.12,28.21,24.61,36.33,0.04,-272.73,-272.73,-53,557,-929,22.5,4.1,-21.4,22.7,4.2,-21.0,5.73,2.28,-25.4,27.6
2012-04-26 01:56:00,0.0,1.9077,0.0011,402.47,0.36,153.2,38.6,138.12,28.22,24.61,36.32,0.04,-272.74,-272.73,-54,557,-929,22.5,4.1,-21.4,22.7,4.2,-21.0,5.73,2.38,-25.3,27.6
2012-04-26 01:57:00,0.0,1.9081,0.0006,402.59,0.34,150.1,41.8,138.12,28.22,24.61,36.32,0.04,-272.73,-272.73,-53,557,-929,22.5,4.1,-21.3,22.7,4.2,-20.9,5.73,2.43,-25.2,27.6
2012-04-26 01:58:00,0.0,1.9079,0.0010,402.59,0.37,161.3,40.8,138.12,28.23,24.61,36.32,0.04,-272.74,-272.74,-53,557,-929,22.6,4.1,-21.3,22.8,4.2,-20.8,5.73,2.28,-25.2,27.6
2012-04-26 01:59:00,0.0,1.9079,0.0009,402.68,0.40,163.2,30.9,138.12,28.24,24.62,36.32,0.04,-272.74,-272.73,-53,557,-929,22.6,4.1,-21.4,22.8,4.2,-20.9,5.73,2.35,-25.2,27.7
2012-04-26 02:00:00,0.0,1.9077,0.0007,402.59,0.36,189.0,41.6,138.12,28.24,24.62,36.32,0.04,-272.74,-272.74,-53,558,-929,22.6,4.0,-21.4,22.8,4.1,-21.0,5.73,2.44,-25.1,27.8
2012-04-26 02:01:00,0.0,1.9076,0.0009,402.51,0.38,175.7,33.4,138.12,28.25,24.62,36.32,0.04,-272.73,-272.74,-53,557,-929,22.7,4.0,-21.4,22.8,4.2,-20.9,5.73,2.31,-25.1,27.8
2012-04-26 02:02:00,0.0,1.9085,0.0011,402.51,0.38,187.7,38.9,138.12,28.26,24.61,36.33,0.04,-272.74,-272.74,-53,558,-929,22.7,4.1,-21.2,22.9,4.2,-20.7,5.73,2.31,-25.1,27.9
2012-04-26 02:03:00,0.0,1.9076,0.0009,402.52,0.29,193.6,40.3,138.12,28.26,24.62,36.33,0.04,-272.73,-272.74,-53,558,-929,22.7,4.1,-21.2,22.9,4.2,-20.8,5.73,2.43,-25.0,27.8
2012-04-26 02:04:00,0.0,1.9076,0.0010,402.50,0.37,183.4,38.1,138.11,28.27,24.62,36.33,0.04,-272.74,-272.74,-54,558,-929,22.7,4.1,-21.2,22.9,4.2,-20.8,5.73,2.36,-25.0,27.9
2012-04-26 02:05:00,0.0,1.9076,0.0009,402.61,0.42,195.6,42.2,138.11,28.28,24.62,36.33,0.04,-272.74,-272.74,-53,558,-929,22.7,4.1,-21.3,22.9,4.2,-20.8,5.73,2.28,-25.0,27.9
2012-04-26 02:06:00,0.0,1.9080,0.0011,402.59,0.40,197.3,36.6,138.11,28.28,24.61,36.33,0.04,-272.74,-272.74,-53,558,-929,22.8,4.1,-21.3,22.9,4.2,-20.8,5.73,2.40,-24.9,27.9
2012-04-26 02:07:00,0.0,1.9076,0.0011,402.61,0.36,184.6,41.8,138.11,28.29,24.62,36.33,0.04,-272.74,-272.74,-54,558,-929,22.8,4.1,-21.3,23.0,4.2,-20.8,5.73,2.41,-24.9,28.0
2012-04-26 02:08:00,0.0,1.9076,0.0012,402.56,0.37,195.2,35.4,138.11,28.30,24.62,36.33,0.04,-272.74,-272.74,-53,558,-929,22.8,4.1,-21.2,23.0,4.2,-20.8,5.73,2.29,-24.9,28.0
2012-04-26 02:09:00,0.0,1.9073,0.0011,402.51,0.43,195.1,38.2,138.11,28.31,24.62,36.33,0.04,-272.73,-272.74,-53,558,-929,22.8,4.0,-21.2,23.0,4.2,-20.8,5.73,2.33,-24.8,28.0
2012-04-26 02:10:00,0.0,1.9076,0.0011,402.58,0.31,190.1,41.7,138.11,28.32,24.62,36.33,0.04,-272.73,-272.74,-54,558,-929,22.9,4.0,-21.3,23.0,4.1,-20.8,5.73,2.43,-24.8,28.0
2012-04-26 02:11:00,0.0,1.9075,0.0010,402.63,0.38,203.9,36.2,138.11,28.33,24.62,36.33,0.04,-272.74,-272.74,-53,559,-929,22.9,4.0,-21.3,23.1,4.1,-20.8,5.73,2.34,-24.8,28.1
2012-04-26 02:12:00,0.0,1.9078,0.0010,402.56,0.37,207.3,43.7,138.11,28.33,24.62,36.33,0.04,-272.74,-272.74,-53,559,-929,22.9,4.0,-21.2,23.1,4.2,-20.7,5.73,2.28,-24.8,28.1
2012-04-26 02:13:00,0.0,1.9078,0.0010,402.58,0.38,199.6,40.3,138.11,28.34,24.62,36.33,0.04,-272.74,-272.74,-54,559,-929,22.9,4.1,-21.1,23.1,4.2,-20.7,5.73,2.39,-24.7,28.1
2012-04-26 02:14:00,0.0,1.9078,0.0010,402.76,0.34,197.0,30.2,138.11,28.35,24.62,36.33,0.04,-272.74,-272.74,-53,559,-930,23.0,4.0,-21.1,23.1,4.2,-20.7,5.73,2.41,-24.7,28.2
2012-04-26 02:15:00,0.0,1.9077,0.0011,402.69,0.38,198.9,37.9,138.11,28.36,24.62,36.33,0.04,-272.73,-272.74,-53,559,-930,23.0,4.0,-21.3,23.2,4.1,-20.8,5.73,2.30,-24.7,28.2
2012-04-26 02:16:00,0.0,1.9079,0.0010,402.72,0.33,209.0,34.9,138.11,28.37,24.62,36.33,0.04,-272.73,-272.73,-54,559,-930,23.0,4.0,-21.3,23.2,4.1,-20.8,5.73,2.31,-24.7,28.1
2012-04-26 02:17:00,0.0,1.9082,0.0009,402.66,0.40,211.8,43.1,138.11,28.38,24.61,36.33,0.04,-272.74,-272.74,-53,560,-930,23.0,4.0,-21.2,23.2,4.1,-20.7,5.73,2.46,-24.7,27.7